Date String (YYYY-MM-DD hh:mm:ss) UTC,Instrument flags,absolute air pressure of the measurement (hPa),sample flow rate (lpm),inlet stack bypass flow (lpm),air temperature of the measurement (°C),ambient temperature measured by the external sensor (°C),aerosol sample conditioner tube jacket temperature (°C),OPC LED temperature (°C),internal box temperature (°C),relative humidity of the measurement (%),span deviation,mass concentration of particles derived from Lorenz-Mie calculation of OPC scattering (μg/m³),mass concentration of particles derived from Lorenz-Mie calculation of OPC scattering (μg/m³),mass concentration of particles derived from Lorenz-Mie calculation of OPC scattering (μg/m³)
DateTimeUTC,F1_M11,P_M11,Q1_M11,Q2_M11,T1_M11,T2_M11,T3_M11,T4_M11,T5_M11,U1_M11,ZSPAN_M11,X2_M11,X0_M11,X1_M11
2024-03-26 11:00:00,SystemResetWarning,0819.4,5.00,000.00,018.9,019.3,000.0,027.5,021.3,13.7,0000.2,0009.77,0013.09,0009.56
2024-03-26 11:01:00,SystemResetWarning,0819.5,4.99,000.00,019.0,019.2,000.0,027.5,021.2,13.6,0000.8,0009.80,0013.06,0009.58
2024-03-26 11:02:00,SystemResetWarning,0819.5,4.99,000.00,019.0,018.9,000.0,027.4,021.0,13.6,0000.5,0009.80,0013.00,0009.60
2024-03-26 11:03:00,SystemResetWarning,0819.4,5.00,000.00,018.9,018.6,000.0,027.4,020.8,13.6,0000.2,0009.84,0013.07,0009.64
2024-03-26 11:04:00,SystemResetWarning,0818.9,5.00,000.00,018.8,018.2,000.0,027.4,020.6,13.7,0000.4,0009.87,0012.90,0009.67
2024-03-26 11:05:00,SystemResetWarning,0818.9,5.01,000.00,018.8,018.0,000.0,027.4,020.4,13.7,0000.6,0009.91,0012.08,0009.68
2024-03-26 11:06:00,SystemResetWarning,0818.9,5.01,000.00,018.7,017.8,000.0,027.4,020.3,13.8,0000.7,0009.93,0011.93,0009.70
2024-03-26 11:07:00,SystemResetWarning,0818.8,4.99,000.00,018.6,017.6,000.0,027.4,020.2,13.8,0000.6,0009.96,0012.02,0009.72
2024-03-26 11:08:00,SystemResetWarning,0818.8,4.99,000.00,018.6,017.5,000.0,027.3,020.1,13.9,0000.6,0009.97,0012.69,0009.73
2024-03-26 11:09:00,SystemResetWarning,0818.8,5.01,000.00,018.5,017.4,000.0,027.3,020.1,13.9,0000.9,0010.02,0012.90,0009.75
2024-03-26 11:10:00,SystemResetWarning,0818.8,5.01,000.00,018.4,017.3,000.0,027.3,020.0,14.0,0001.0,0010.05,0012.98,0009.75
2024-03-26 11:11:00,SystemResetWarning,0818.8,5.00,000.00,018.4,017.4,000.0,027.3,020.1,13.9,0001.5,0010.04,0012.93,0009.76
2024-03-26 11:12:00,SystemResetWarning,0818.9,5.00,000.00,018.5,018.2,000.0,027.4,020.6,13.8,0001.6,0010.00,0012.87,0009.74
2024-03-26 11:13:00,SystemResetWarning,0819.1,5.00,000.00,018.8,019.2,000.0,027.5,021.2,13.6,0001.9,0010.00,0012.86,0009.74
2024-03-26 11:14:00,SystemResetWarning,0819.3,4.99,000.00,019.0,019.4,000.0,027.5,021.3,13.4,0002.2,0009.99,0012.85,0009.73
2024-03-26 11:15:00,SystemResetWarning,0818.8,4.99,000.00,019.0,019.2,000.0,027.4,021.1,13.4,0001.8,0010.00,0012.88,0009.72
2024-03-26 11:16:00,SystemResetWarning,0818.8,5.01,000.00,019.0,018.9,000.0,027.4,020.9,13.4,0001.5,0009.98,0012.87,0009.71
2024-03-26 11:17:00,SystemResetWarning,0818.8,5.01,000.00,018.9,018.6,000.0,027.4,020.8,13.5,0001.4,0009.94,0013.25,0009.68
2024-03-26 11:18:00,SystemResetWarning,0818.9,5.00,000.00,018.9,018.4,000.0,027.4,020.6,13.5,0001.6,0009.93,0012.94,0009.66
2024-03-26 11:19:00,SystemResetWarning,0818.8,5.00,000.00,018.8,018.2,000.0,027.4,020.5,13.5,0002.1,0009.89,0012.32,0009.61
2024-03-26 11:20:00,SystemResetWarning,0818.8,4.99,000.00,018.8,018.0,000.0,027.4,020.4,13.5,0002.3,0009.83,0011.94,0009.57
2024-03-26 11:21:00,SystemResetWarning,0818.9,5.00,000.00,018.7,017.8,000.0,027.4,020.4,13.6,0002.5,0009.77,0012.02,0009.53
2024-03-26 11:22:00,SystemResetWarning,0818.9,5.02,000.00,018.7,017.7,000.0,027.4,020.3,13.6,0002.6,0009.74,0012.08,0009.50
2024-03-26 11:23:00,SystemResetWarning,0819.1,5.01,000.00,018.6,017.6,000.0,027.3,020.2,13.7,0002.8,0009.73,0012.27,0009.49
2024-03-26 11:24:00,SystemResetWarning,0819.4,4.98,000.00,018.5,017.6,000.0,027.3,020.2,13.8,0002.3,0009.71,0012.71,0009.46
2024-03-26 11:25:00,SystemResetWarning,0818.9,5.00,000.00,018.5,017.5,000.0,027.3,020.1,13.9,0002.0,0009.67,0012.65,0009.44
2024-03-26 11:26:00,SystemResetWarning,0818.8,5.01,000.00,018.4,017.4,000.0,027.3,020.1,13.9,0001.9,0009.64,0012.56,0009.43
2024-03-26 11:27:00,SystemResetWarning,0819.2,5.01,000.00,018.5,017.9,000.0,027.4,020.4,13.9,0002.2,0009.64,0012.54,0009.42
2024-03-26 11:28:00,SystemResetWarning,0819.2,5.00,000.00,018.7,018.8,000.0,027.4,020.9,13.8,0001.6,0009.66,0012.62,0009.43
2024-03-26 11:29:00,SystemResetWarning,0818.9,4.99,000.00,018.9,019.0,000.0,027.4,021.0,13.6,0001.3,0009.66,0013.12,0009.43
2024-03-26 11:30:00,SystemResetWarning,0819.0,4.99,000.00,018.8,018.7,000.0,027.4,020.9,13.6,0000.8,0009.67,0013.27,0009.45
2024-03-26 11:31:00,SystemResetWarning,0819.0,5.01,000.00,018.8,018.5,000.0,027.4,020.7,13.6,0000.5,0009.67,0013.41,0009.44
2024-03-26 11:32:00,SystemResetWarning,0819.0,5.00,000.00,018.8,018.2,000.0,027.3,020.5,13.6,0000.4,0009.70,0013.37,0009.45
2024-03-26 11:33:00,SystemResetWarning,0818.9,5.00,000.00,018.7,018.0,000.0,027.3,020.4,13.6,0000.3,0009.69,0013.21,0009.45
2024-03-26 11:34:00,SystemResetWarning,0819.3,5.00,000.00,018.6,017.8,000.0,027.3,020.3,13.6,0000.2,0009.68,0013.12,0009.45
2024-03-26 11:35:00,SystemResetWarning,0819.0,5.00,000.00,018.6,017.7,000.0,027.3,020.2,13.6,0000.7,0009.64,0012.49,0009.40
2024-03-26 11:36:00,SystemResetWarning,0818.9,5.00,000.00,018.5,017.6,000.0,027.3,020.1,13.6,0001.2,0009.60,0012.47,0009.35
2024-03-26 11:37:00,SystemResetWarning,0819.0,5.00,000.00,018.5,017.4,000.0,027.2,020.1,13.7,0001.9,0009.56,0012.48,0009.29
2024-03-26 11:38:00,SystemResetWarning,0819.0,5.00,000.00,018.4,017.3,000.0,027.2,020.0,13.7,0002.0,0009.49,0012.39,0009.24
2024-03-26 11:39:00,SystemResetWarning,0819.0,5.02,000.00,018.4,017.6,000.0,027.3,020.2,13.8,0002.1,0009.45,0011.91,0009.22
2024-03-26 11:40:00,SystemResetWarning,0819.0,5.00,000.00,018.6,018.5,000.0,027.4,020.8,13.7,0002.4,0009.41,0011.34,0009.19
2024-03-26 11:41:00,SystemResetWarning,0819.0,5.00,000.00,018.9,019.4,000.0,027.5,021.3,13.5,0000.0,0009.40,0011.14,0009.17
2024-03-26 11:42:00,SystemResetWarning,0819.0,4.98,000.00,019.0,019.4,000.0,027.4,021.3,13.3,0002.3,0009.39,0011.02,0009.17
2024-03-26 11:43:00,SystemResetWarning,0819.0,5.00,000.00,019.0,019.0,000.0,027.4,021.0,13.3,0001.9,0009.36,0011.00,0009.14
2024-03-26 11:44:00,SystemResetWarning,0819.0,5.01,000.00,018.9,018.7,000.0,027.4,020.8,13.4,0000.0,0009.35,0011.00,0009.13
2024-03-26 11:45:00,SystemResetWarning,0819.0,5.01,000.00,018.9,018.4,000.0,027.4,020.6,13.4,0000.0,0009.36,0011.06,0009.11
2024-03-26 11:46:00,SystemResetWarning,0819.0,5.00,000.00,018.8,018.2,000.0,027.4,020.5,13.4,0000.0,0009.40,0011.16,0009.13
2024-03-26 11:47:00,SystemResetWarning,0819.1,5.00,000.00,018.8,018.0,000.0,027.4,020.4,13.4,0000.0,0009.39,0011.11,0009.14
2024-03-26 11:48:00,SystemResetWarning,0819.1,5.00,000.00,018.7,017.8,000.0,027.3,020.3,13.5,0000.0,0009.39,0011.08,0009.15
2024-03-26 11:49:00,SystemResetWarning,0819.0,4.99,000.00,018.6,017.7,000.0,027.3,020.2,13.6,0000.8,0009.43,0011.14,0009.19
2024-03-26 11:50:00,SystemResetWarning,0818.9,4.99,000.00,018.6,017.5,000.0,027.3,020.1,13.7,0000.3,0009.46,0011.42,0009.20
2024-03-26 11:51:00,SystemResetWarning,0819.0,5.01,000.00,018.5,017.5,000.0,027.3,020.1,13.8,0001.2,0009.47,0011.54,0009.21
2024-03-26 11:52:00,SystemResetWarning,0819.0,5.02,000.00,018.4,017.4,000.0,027.3,020.0,13.8,0001.9,0009.49,0011.56,0009.23
2024-03-26 11:53:00,SystemResetWarning,0819.0,5.00,000.00,018.4,017.4,000.0,027.3,020.1,13.9,0001.6,0009.52,0011.61,0009.26
2024-03-26 11:54:00,SystemResetWarning,0819.1,5.00,000.00,018.5,018.1,000.0,027.4,020.6,13.9,0003.1,0009.56,0011.71,0009.29
2024-03-26 11:55:00,SystemResetWarning,0819.3,5.00,000.00,018.7,019.0,000.0,027.5,021.1,13.7,0002.0,0009.60,0012.09,0009.34
2024-03-26 11:56:00,SystemResetWarning,0819.2,4.99,000.00,019.0,019.4,000.0,027.5,021.3,13.6,0000.9,0009.65,0012.33,0009.36
2024-03-26 11:57:00,SystemResetWarning,0819.1,4.99,000.00,019.0,019.1,000.0,027.4,021.1,13.6,0003.6,0009.67,0012.74,0009.40
2024-03-26 11:58:00,SystemResetWarning,0819.0,5.01,000.00,018.9,018.8,000.0,027.4,020.9,13.6,0003.4,0009.72,0012.79,0009.45
2024-03-26 11:59:00,SystemResetWarning,0819.0,5.01,000.00,018.9,018.5,000.0,027.4,020.7,13.6,0003.5,0009.74,0012.84,0009.48
